User: anonymous   Login
Location: Knowlton
(51.2333°N, 1.2667°E)
Time: 18:00:58
(UTC+00:00)
Language:

COSMOS 2455 - Orbit

View from above orbital plane
View from above orbital plane
View from above satellite
View from above satellite

Ground track
Ground track

The orbit data is extracted from the following two-line orbital elements,

1 36095U 09063A   21167.30704020 -.00000060  00000-0  11129-4 0  9999
2 36095  67.1487  14.6692 0003751 287.9498  72.1178 13.96769884590167
Epoch (UTC): 16 June 2021 07:22:08
Eccentricity: 0.0003751
inclination: 67.1487°
perigee height: 902 km
apogee height: 908 km
right ascension of ascending node: 14.6692°
argument of perigee: 287.9498°
revolutions per day: 13.96769884
mean anomaly at epoch: 72.1178°
orbit number at epoch: 59016

The dashed part of the orbit path shows where the satellite is in the earth's shadow,  

DLR